Weather History for KONT - May, 2013

Change the Weather History Date:

Friday, May 10, 2013

  Actual Average Record
Temperature  
Mean Temperature 73 °F 66 °F  
Max Temperature 87 °F 78 °F 90 °F (2007)
Min Temperature 58 °F 55 °F 46 °F (2003)
Degree Days  
Heating Degree Days 0 1  
Month to date heating degree days 9 18  
Since 1 July heating degree days 1271 1511  
Cooling Degree Days 8 3  
Month to date cooling degree days 42 29  
Year to date cooling degree days 138 88  
Growing Degree Days 22 (Base 50)    
Moisture  
Dew Point 53 °F    
Average Humidity 58    
Maximum Humidity 86    
Minimum Humidity 29    
Precipitation  
Precipitation 0.00 in 0.02 in 0.29 in (1977)
Month to date precipitation 0.37 0.16  
Year to date precipitation 2.79 10.12  
Since 1 July precipitation 5.56 14.78  
Snow  
Snow 0.00 in - - ()
Month to date snowfall 0.0  
Year to date snowfall 0.0  
Since 1 July snowfall 0.0  
Snow Depth 0.00 in    
Sea Level Pressure  
Sea Level Pressure 30.04 in    
Wind  
Wind Speed 7 mph (WSW)    
Max Wind Speed 22 mph    
Max Gust Speed 26 mph    
Visibility 8 miles    
Events      
T = Trace of Precipitation, MM = Missing Value Source: NWS Daily Summary

Daily Weather History Graph

Daily Weather History Graph

Search for Another Location

Airport or City:

Trip Planner

Search our weather history database for the weather conditions in past years. The results will help you decide how hot, cold, wet, or windy it might be!

Date:

Astronomy

May. 10, 2013 Rise Set
Actual Time 5:52 AM PDT 7:41 PM PDT
Civil Twilight 5:25 AM PDT 8:08 PM PDT
Nautical Twilight 4:52 AM PDT 8:42 PM PDT
Astronomical Twilight 4:17 AM PDT 9:17 PM PDT
Moon 6:20 AM PDT (5/10) 8:33 PM PDT (5/10)
Length of Visible Light 14h 43m
Length of Day
13h 49m
New Moon, 1% of the Moon is Illuminated
May 10
New Moon
May 17
First Quarter
May 24
Full
May 31
Last Quarter
Jun 8
New

Hourly Weather History & Observations

Time (PDT) Temp. Heat Index Dew Point Humidity Pressure Visibility Wind Dir Wind Speed Gust Speed Precip Events Conditions
12:53 AM 59.0 °F - 53.1 °F 81% 30.05 in 9.0 mi West 5.8 mph - N/A   Partly Cloudy
1:44 AM 57.2 °F - 53.6 °F 88% 30.06 in 9.0 mi West 5.8 mph - N/A   Mostly Cloudy
1:53 AM 57.9 °F - 53.1 °F 84% 30.04 in 9.0 mi West 4.6 mph - N/A   Partly Cloudy
2:22 AM 57.2 °F - 53.6 °F 88% 30.07 in 6.0 mi West 6.9 mph - N/A   Mostly Cloudy
2:53 AM 57.9 °F - 54.0 °F 87% 30.04 in 5.0 mi WSW 5.8 mph - N/A   Mostly Cloudy
3:16 AM 57.2 °F - 53.6 °F 88% 30.07 in 7.0 mi Calm Calm - N/A   Scattered Clouds
3:33 AM 57.2 °F - 51.8 °F 82% 30.08 in 7.0 mi WSW 5.8 mph - N/A   Mostly Cloudy
3:53 AM 57.9 °F - 52.0 °F 81% 30.06 in 7.0 mi WSW 5.8 mph - N/A   Overcast
4:53 AM 57.2 °F - 53.6 °F 88% 30.07 in 5.0 mi Calm Calm - N/A   Overcast
5:53 AM 57.9 °F - 53.1 °F 84% 30.05 in 3.0 mi Calm Calm - N/A   Overcast
6:19 AM 57.2 °F - 53.6 °F 88% 30.08 in 3.0 mi Calm Calm - N/A   Overcast
6:53 AM 59.0 °F - 53.1 °F 81% 30.06 in 3.0 mi Calm Calm - N/A   Scattered Clouds
7:53 AM 61.0 °F - 53.1 °F 75% 30.06 in 3.0 mi Calm Calm - N/A   Haze
8:53 AM 64.0 °F - 53.1 °F 67% 30.06 in 4.0 mi ESE 4.6 mph - N/A   Haze
9:53 AM 66.9 °F - 52.0 °F 59% 30.05 in 5.0 mi Calm Calm - N/A   Haze
10:53 AM 73.0 °F - 52.0 °F 48% 30.05 in 6.0 mi West 6.9 mph - N/A   Haze
11:53 AM 77.0 °F - 51.1 °F 40% 30.03 in 7.0 mi West 11.5 mph - N/A   Scattered Clouds
12:53 PM 80.1 °F 79.9 °F 53.1 °F 39% 30.01 in 9.0 mi West 12.7 mph - N/A   Partly Cloudy
1:53 PM 84.0 °F - 52.0 °F 33% 30.00 in 10.0 mi West 15.0 mph 20.7 mph N/A   Partly Cloudy
2:53 PM 84.9 °F - 51.1 °F 31% 29.97 in 10.0 mi West 15.0 mph 21.9 mph N/A   Partly Cloudy
3:53 PM 86.0 °F - 50.0 °F 29% 29.96 in 10.0 mi West 20.7 mph 25.3 mph N/A   Scattered Clouds
4:53 PM 84.0 °F 82.5 °F 53.1 °F 34% 29.96 in 10.0 mi WSW 18.4 mph - N/A   Scattered Clouds
5:53 PM 81.0 °F 80.4 °F 53.1 °F 38% 29.96 in 10.0 mi WSW 18.4 mph - N/A   Scattered Clouds
6:53 PM 75.9 °F - 54.0 °F 46% 29.98 in 10.0 mi SW 11.5 mph - N/A   Partly Cloudy
7:53 PM 72.0 °F - 55.0 °F 55% 30.01 in 10.0 mi SW 9.2 mph - N/A   Partly Cloudy
8:53 PM 68.0 °F - 55.9 °F 65% 30.04 in 10.0 mi West 8.1 mph - N/A   Partly Cloudy
9:53 PM 66.9 °F - 55.9 °F 68% 30.06 in 10.0 mi West 5.8 mph - N/A   Partly Cloudy
10:53 PM 66.0 °F - 55.9 °F 70% 30.05 in 10.0 mi WSW 4.6 mph - N/A   Partly Cloudy
11:53 PM 66.0 °F - 55.9 °F 70% 30.05 in 10.0 mi Calm Calm - N/A   Clear